Change the Weather History Date:

Wednesday, September 5, 2012

  Actual Average Record
Temperature  
Mean Temperature 75 °F 70 °F  
Max Temperature 81 °F 75 °F 101 °F (2004)
Min Temperature 69 °F 64 °F 55 °F (1948)
Degree Days  
Heating Degree Days 0 0  
Month to date heating degree days 0 0  
Since 1 July heating degree days 5 4  
Cooling Degree Days 10 5  
Month to date cooling degree days 34 25  
Year to date cooling degree days 380 371  
Growing Degree Days 25 (Base 50)    
Moisture  
Dew Point 61 °F    
Average Humidity 65    
Maximum Humidity 84    
Minimum Humidity 45    
Precipitation  
Precipitation T in 0.00 in 0.36 in (1978)
Month to date precipitation T 0.01  
Year to date precipitation 4.61 8.90  
Since 1 July precipitation T 0.09  
Sea Level Pressure  
Sea Level Pressure 29.95 in    
Wind  
Wind Speed 5 mph (WSW)    
Max Wind Speed 16 mph    
Max Gust Speed -    
Visibility 10 miles    
Events Fog    
T = Trace of Precipitation, MM = Missing Value Source: NWS Daily Summary

Daily Weather History Graph

Daily Weather History Graph

Search for Another Location

Airport or City:

Trip Planner

Search our weather history database for the weather conditions in past years. The results will help you decide how hot, cold, wet, or windy it might be!

Date:

Astronomy

Sep. 05, 2012 Rise Set
Actual Time 6:30 AM PDT 7:13 PM PDT
Civil Twilight 6:05 AM PDT 7:38 PM PDT
Nautical Twilight 5:35 AM PDT 8:08 PM PDT
Astronomical Twilight 5:04 AM PDT 8:38 PM PDT
Moon 10:04 PM PDT (9/5) 11:21 AM PDT (9/5)
Length of Visible Light 13h 33m
Length of Day
12h 42m
Waning Gibbous, 75% of the Moon is Illuminated
Sep 5
Waning Gibbous
Sep 8
Last Quarter
Sep 15
New
Sep 22
First Quarter
Sep 29
Full

Hourly Weather History & Observations

Time (PDT) Temp. Heat Index Dew Point Humidity Pressure Visibility Wind Dir Wind Speed Gust Speed Precip Events Conditions
12:53 AM 69.1 °F - 62.1 °F 78% 29.96 in 10.0 mi WSW 3.5 mph - N/A   Mostly Cloudy
1:53 AM 69.1 °F - 64.0 °F 84% 29.95 in 10.0 mi SW 3.5 mph - N/A   Mostly Cloudy
2:53 AM 70.0 °F - 63.0 °F 78% 29.95 in 10.0 mi Calm Calm - N/A   Mostly Cloudy
3:53 AM 71.1 °F - 63.0 °F 75% 29.94 in 10.0 mi Calm Calm - N/A   Mostly Cloudy
4:53 AM 69.1 °F - 61.0 °F 75% 29.95 in 10.0 mi West 4.6 mph - N/A   Mostly Cloudy
5:53 AM 70.0 °F - 61.0 °F 73% 29.96 in 10.0 mi Calm Calm - N/A   Mostly Cloudy
6:53 AM 69.8 °F - 62.6 °F 78% 29.96 in 10.0 mi Variable 3.5 mph - N/A Fog Patches of Fog
7:53 AM 71.6 °F - 62.6 °F 73% 29.96 in 10.0 mi Calm Calm - N/A   Mostly Cloudy
8:53 AM 73.9 °F - 60.1 °F 62% 29.96 in 10.0 mi Calm Calm - 0.00 in   Mostly Cloudy
9:53 AM 73.0 °F - 63.0 °F 71% 29.98 in 10.0 mi Variable 3.5 mph - 0.00 in   Mostly Cloudy
10:53 AM 72.0 °F - 63.0 °F 73% 29.99 in 10.0 mi NW 6.9 mph - N/A   Mostly Cloudy
11:53 AM 78.1 °F - 60.1 °F 54% 29.97 in 10.0 mi Calm Calm - 0.00 in   Mostly Cloudy
12:53 PM 81.0 °F 81.1 °F 57.9 °F 45% 29.96 in 10.0 mi WSW 6.9 mph - N/A   Mostly Cloudy
1:53 PM 78.1 °F - 60.1 °F 54% 29.96 in 10.0 mi West 9.2 mph - N/A   Mostly Cloudy
2:53 PM 75.9 °F - 59.0 °F 56% 29.95 in 10.0 mi West 11.5 mph - N/A   Mostly Cloudy
3:53 PM 77.0 °F - 57.0 °F 50% 29.93 in 10.0 mi West 12.7 mph - N/A   Mostly Cloudy
4:53 PM 75.9 °F - 57.9 °F 54% 29.92 in 10.0 mi West 10.4 mph - N/A   Mostly Cloudy
5:53 PM 75.0 °F - 59.0 °F 57% 29.91 in 10.0 mi West 11.5 mph - N/A   Scattered Clouds
6:53 PM 73.9 °F - 59.0 °F 59% 29.90 in 10.0 mi WSW 6.9 mph - N/A   Mostly Cloudy
7:53 PM 73.0 °F - 61.0 °F 66% 29.90 in 10.0 mi SW 4.6 mph - N/A   Mostly Cloudy
8:53 PM 70.0 °F - 63.0 °F 78% 29.91 in 10.0 mi WSW 8.1 mph - N/A   Scattered Clouds
9:53 PM 70.0 °F - 61.0 °F 73% 29.94 in 10.0 mi SW 8.1 mph - N/A   Mostly Cloudy
10:53 PM 69.1 °F - 61.0 °F 75% 29.94 in 10.0 mi WSW 4.6 mph - N/A   Partly Cloudy
11:53 PM 70.0 °F - 62.1 °F 76% 29.94 in 10.0 mi Calm Calm - N/A   Partly Cloudy